Terminal Aerodrome Forecast
Issued by NWS Sterling, VA

Current Version | Previous Version | Text Only | Print | Product List | Glossary Off
Versions: 1 2 3 4 5 6 7 8 9 10 11 12 13 14 15 16 17 18 19 20 21 22 23 24 25 26 27 28 29 30 31

948
FTUS41 KLWX 222104 AAA
TAFDCA
TAF AMD
KDCA 222104Z 2221/2324 02011KT 5SM -DZ OVC015
     FM230600 06006KT 2SM -RADZ OVC003
     FM231500 10005KT 2SM -RADZ OVC008=

USA.gov is the U.S. government's official web portal to all federal, state and local government web resources and services.